QPF
0.08 0.05 0.03 0.01 0.00 0.00 0.00 0.00 0.00 0.00 0.00 0.00 0.00 0.00 0.00 0.00 0.00 0.00 0.00 0.00 0.00 0.00 0.00 0.00 0.00 0.00 0.00 0.00 0.00 0.00 0.00 0.00 0.00 0.00 0.00 0.00 0.00 0.00 0.00 0.00 0.00 0.00 0.00 0.00 0.00 0.00 0.00 0.00 0.00 0.00 0.00 0.00 0.00 0.00 0.00 0.00 0.00 0.00 0.00 0.00 0.00 0.00 0.00 0.00 0.00 0.00 0.00 0.00 0.00
0.05 0.02 0.01 0.00 0.00 0.00 0.00 0.00 0.00 0.00 0.00 0.00 0.00 0.00 0.00 0.00 0.00 0.00 0.00 0.00 0.00 0.00 0.00 0.00 0.00 0.00 0.00 0.00 0.00 0.00 0.00 0.00 0.00 0.00 0.00 0.00 0.00 0.00 0.00 0.00 0.00 0.00 0.00 0.00 0.00 0.00 0.00 0.00 0.00 0.00 0.00 0.00 0.00 0.00 0.00 0.00 0.00 0.00 0.00 0.00 0.00 0.00 0.00 0.00 0.00 0.00 0.00 0.00 0.00
0.03 0.01 0.00 0.00 0.00 0.00 0.00 0.00 0.00 0.00 0.00 0.00 0.00 0.00 0.00 0.00 0.00 0.00 0.00 0.00 0.00 0.00 0.00 0.00 0.00 0.00 0.00 0.00 0.00 0.00 0.00 0.00 0.00 0.00 0.00 0.00 0.00 0.00 0.00 0.00 0.00 0.00 0.00 0.00 0.00 0.00 0.00 0.00 0.00 0.00 0.00 0.00 0.00 0.00 0.00 0.00 0.00 0.00 0.00 0.00 0.00 0.00 0.00 0.00 0.00 0.00 0.00 0.00 0.00
0.01 0.00 0.00 0.00 0.00 0.00 0.00 0.00 0.00 0.00 0.00 0.00 0.00 0.00 0.00 0.00 0.00 0.00 0.00 0.00 0.00 0.00 0.00 0.00 0.00 0.00 0.00 0.00 0.00 0.00 0.00 0.00 0.00 0.00 0.00 0.00 0.00 0.00 0.00 0.00 0.00 0.00 0.00 0.00 0.00 0.00 0.00 0.00 0.00 0.00 0.00 0.00 0.00 0.00 0.00 0.00 0.00 0.00 0.00 0.00 0.00 0.00 0.00 0.00 0.00 0.00 0.00 0.00 0.00
0.01 0.00 0.00 0.00 0.00 0.00 0.00 0.00 0.00 0.00 0.00 0.00 0.00 0.00 0.00 0.00 0.00 0.00 0.00 0.00 0.00 0.00 0.00 0.00 0.00 0.00 0.00 0.00 0.00 0.00 0.00 0.00 0.00 0.00 0.00 0.00 0.00 0.00 0.00 0.00 0.00 0.00 0.00 0.00 0.00 0.00 0.00 0.00 0.00 0.00 0.00 0.00 0.00 0.00 0.00 0.00 0.00 0.00 0.00 0.00 0.00 0.00 0.00 0.00 0.00 0.00 0.00 0.00 0.00
0.00 0.00 0.00 0.00 0.00 0.00 0.00 0.00 0.00 0.00 0.00 0.00 0.00 0.00 0.00 0.00 0.00 0.00 0.00 0.00 0.00 0.00 0.00 0.00 0.00 0.00 0.00 0.00 0.00 0.00 0.00 0.00 0.00 0.00 0.00 0.00 0.00 0.00 0.00 0.00 0.00 0.00 0.00 0.00 0.00 0.00 0.00 0.00 0.00 0.00 0.00 0.00 0.00 0.00 0.00 0.00 0.00 0.00 0.00 0.00 0.00 0.00 0.00 0.00 0.00 0.00 0.00 0.00 0.00
0.00 0.00 0.00 0.00 0.00 0.00 0.00 0.00 0.00 0.00 0.00 0.00 0.00 0.00 0.00 0.00 0.00 0.00 0.00 0.00 0.00 0.00 0.00 0.00 0.00 0.00 0.00 0.00 0.00 0.00 0.00 0.00 0.00 0.00 0.00 0.00 0.00 0.00 0.00 0.00 0.00 0.00 0.00 0.00 0.00 0.00 0.00 0.00 0.00 0.00 0.00 0.00 0.00 0.00 0.00 0.00 0.00 0.00 0.00 0.00 0.00 0.00 0.00 0.00 0.00 0.00 0.00 0.00 0.00
0.00 0.00 0.00 0.00 0.00 0.00 0.00 0.00 0.00 0.00 0.00 0.00 0.00 0.00 0.00 0.00 0.00 0.00 0.00 0.00 0.00 0.00 0.00 0.00 0.00 0.00 0.00 0.00 0.00 0.00 0.00 0.00 0.00 0.00 0.00 0.00 0.00 0.00 0.00 0.00 0.00 0.00 0.00 0.00 0.00 0.00 0.00 0.00 0.00 0.00 0.00 0.00 0.00 0.00 0.00 0.00 0.00 0.00 0.00 0.00 0.00 0.00 0.00 0.00 0.00 0.00 0.00 0.00 0.00
0.00 0.00 0.00 0.00 0.00 0.00 0.00 0.00 0.00 0.00 0.00 0.00 0.00 0.00 0.00 0.00 0.00 0.00 0.00 0.00 0.00 0.00 0.00 0.00 0.00 0.00 0.00 0.00 0.00 0.00 0.00 0.00 0.00 0.00 0.00 0.00 0.00 0.00 0.00 0.00 0.00 0.00 0.00 0.00 0.00 0.00 0.00 0.00 0.00 0.00 0.00 0.00 0.00 0.00 0.00 0.00 0.00 0.00 0.00 0.00 0.00 0.00 0.00 0.00 0.00 0.00 0.00 0.01 0.01
0.00 0.00 0.00 0.00 0.00 0.00 0.00 0.00 0.00 0.00 0.00 0.00 0.00 0.00 0.00 0.00 0.00 0.00 0.00 0.00 0.00 0.00 0.00 0.00 0.00 0.00 0.00 0.00 0.00 0.00 0.00 0.00 0.00 0.00 0.00 0.00 0.00 0.00 0.00 0.00 0.00 0.00 0.00 0.00 0.00 0.00 0.00 0.00 0.00 0.00 0.00 0.00 0.00 0.00 0.00 0.00 0.00 0.00 0.00 0.00 0.00 0.00 0.00 0.00 0.00 0.00 0.01 0.01 0.01
0.00 0.00 0.00 0.00 0.00 0.00 0.00 0.00 0.00 0.00 0.00 0.00 0.00 0.00 0.00 0.00 0.00 0.00 0.00 0.00 0.00 0.00 0.00 0.00 0.00 0.00 0.00 0.00 0.00 0.00 0.00 0.00 0.00 0.00 0.00 0.00 0.00 0.00 0.00 0.00 0.00 0.00 0.00 0.00 0.00 0.00 0.00 0.00 0.00 0.00 0.00 0.00 0.00 0.00 0.00 0.00 0.00 0.00 0.00 0.00 0.00 0.00 0.00 0.00 0.00 0.00 0.01 0.01 0.01
0.01 0.00 0.00 0.00 0.00 0.00 0.00 0.00 0.00 0.00 0.00 0.00 0.00 0.00 0.00 0.00 0.00 0.00 0.00 0.00 0.00 0.00 0.00 0.00 0.00 0.00 0.00 0.00 0.00 0.00 0.00 0.00 0.00 0.00 0.00 0.00 0.00 0.00 0.00 0.00 0.00 0.00 0.00 0.00 0.00 0.00 0.00 0.00 0.00 0.00 0.00 0.00 0.00 0.00 0.00 0.00 0.00 0.00 0.00 0.00 0.00 0.00 0.00 0.00 0.00 0.01 0.01 0.01 0.01
0.02 0.01 0.00 0.00 0.00 0.00 0.00 0.00 0.00 0.00 0.00 0.00 0.00 0.00 0.00 0.00 0.00 0.00 0.00 0.00 0.00 0.00 0.00 0.00 0.00 0.00 0.00 0.00 0.00 0.00 0.00 0.00 0.00 0.00 0.00 0.00 0.00 0.00 0.00 0.00 0.00 0.00 0.00 0.00 0.00 0.00 0.00 0.00 0.00 0.00 0.00 0.00 0.00 0.00 0.00 0.00 0.00 0.00 0.00 0.00 0.00 0.00 0.00 0.01 0.01 0.01 0.01 0.01 0.01
0.03 0.02 0.00 0.00 0.00 0.00 0.00 0.00 0.00 0.00 0.00 0.00 0.00 0.00 0.00 0.00 0.00 0.00 0.00 0.00 0.00 0.00 0.00 0.00 0.00 0.00 0.00 0.00 0.00 0.00 0.00 0.00 0.00 0.00 0.00 0.00 0.00 0.00 0.00 0.00 0.00 0.00 0.00 0.00 0.00 0.00 0.00 0.00 0.00 0.00 0.00 0.00 0.00 0.00 0.00 0.00 0.00 0.00 0.00 0.00 0.00 0.00 0.00 0.01 0.01 0.01 0.01 0.01 0.01
0.03 0.02 0.01 0.01 0.01 0.01 0.00 0.00 0.00 0.00 0.00 0.00 0.00 0.00 0.00 0.00 0.00 0.00 0.00 0.00 0.00 0.00 0.00 0.00 0.00 0.00 0.00 0.00 0.00 0.00 0.00 0.00 0.00 0.00 0.00 0.00 0.00 0.00 0.00 0.00 0.00 0.00 0.00 0.00 0.00 0.00 0.00 0.00 0.00 0.00 0.00 0.00 0.00 0.00 0.00 0.00 0.00 0.00 0.00 0.00 0.00 0.00 0.01 0.01 0.01 0.01 0.01 0.01 0.01
0.03 0.02 0.01 0.01 0.02 0.01 0.00 0.00 0.00 0.00 0.00 0.00 0.00 0.00 0.00 0.00 0.00 0.00 0.00 0.00 0.00 0.00 0.00 0.00 0.00 0.00 0.00 0.00 0.00 0.00 0.00 0.00 0.00 0.00 0.00 0.00 0.00 0.00 0.00 0.00 0.00 0.00 0.00 0.00 0.00 0.00 0.00 0.00 0.00 0.00 0.00 0.00 0.00 0.00 0.00 0.00 0.00 0.00 0.00 0.00 0.00 0.00 0.00 0.01 0.01 0.01 0.01 0.01 0.01
0.05 0.03 0.02 0.01 0.02 0.02 0.01 0.00 0.00 0.00 0.00 0.00 0.00 0.00 0.00 0.00 0.00 0.00 0.00 0.00 0.00 0.00 0.00 0.00 0.00 0.00 0.00 0.00 0.00 0.00 0.00 0.00 0.00 0.00 0.00 0.00 0.00 0.00 0.00 0.00 0.00 0.00 0.00 0.00 0.00 0.00 0.00 0.00 0.00 0.00 0.00 0.00 0.00 0.00 0.00 0.00 0.00 0.00 0.00 0.00 0.00 0.00 0.00 0.00 0.00 0.00 0.01 0.01 0.01
0.07 0.05 0.04 0.03 0.02 0.02 0.01 0.00 0.00 0.00 0.00 0.00 0.00 0.00 0.00 0.00 0.00 0.00 0.00 0.00 0.00 0.00 0.00 0.00 0.00 0.00 0.00 0.00 0.00 0.00 0.00 0.00 0.00 0.00 0.00 0.00 0.00 0.00 0.00 0.00 0.00 0.00 0.00 0.00 0.00 0.00 0.00 0.00 0.00 0.00 0.00 0.00 0.00 0.00 0.00 0.00 0.00 0.00 0.00 0.00 0.00 0.00 0.00 0.00 0.01 0.01 0.01 0.01 0.01
0.08 0.07 0.06 0.03 0.02 0.02 0.01 0.01 0.00 0.00 0.00 0.00 0.00 0.00 0.00 0.00 0.00 0.00 0.00 0.00 0.00 0.00 0.00 0.00 0.00 0.00 0.00 0.00 0.00 0.00 0.00 0.00 0.00 0.00 0.00 0.00 0.00 0.00 0.00 0.00 0.00 0.00 0.00 0.00 0.00 0.00 0.00 0.00 0.00 0.00 0.00 0.00 0.00 0.00 0.00 0.00 0.00 0.00 0.00 0.01 0.01 0.01 0.01 0.01 0.01 0.01 0.01 0.01 0.01
0.09 0.06 0.05 0.04 0.03 0.02 0.02 0.01 0.01 0.01 0.00 0.00 0.00 0.00 0.00 0.00 0.00 0.00 0.00 0.00 0.00 0.00 0.00 0.00 0.00 0.00 0.00 0.00 0.00 0.00 0.00 0.00 0.00 0.00 0.00 0.00 0.00 0.00 0.00 0.00 0.00 0.00 0.00 0.00 0.00 0.00 0.00 0.00 0.00 0.00 0.00 0.00 0.00 0.00 0.00 0.01 0.01 0.01 0.01 0.01 0.01 0.01 0.01 0.01 0.01 0.01 0.01 0.01 0.01
0.11 0.06 0.07 0.07 0.04 0.03 0.02 0.02 0.03 0.02 0.00 0.00 0.00 0.00 0.00 0.00 0.00 0.00 0.00 0.00 0.00 0.00 0.00 0.00 0.00 0.00 0.00 0.00 0.00 0.00 0.00 0.00 0.00 0.00 0.00 0.00 0.00 0.00 0.00 0.00 0.00 0.00 0.00 0.00 0.00 0.00 0.00 0.00 0.00 0.00 0.00 0.00 0.00 0.00 0.00 0.01 0.01 0.01 0.01 0.01 0.01 0.01 0.01 0.02 0.01 0.01 0.01 0.01 0.01
0.16 0.12 0.12 0.11 0.08 0.05 0.03 0.04 0.04 0.02 0.00 0.00 0.00 0.00 0.00 0.00 0.00 0.00 0.00 0.00 0.00 0.00 0.00 0.00 0.00 0.00 0.00 0.00 0.00 0.00 0.00 0.00 0.00 0.00 0.00 0.00 0.00 0.00 0.00 0.00 0.00 0.00 0.00 0.00 0.00 0.00 0.00 0.00 0.00 0.00 0.00 0.00 0.00 0.00 0.00 0.01 0.01 0.01 0.02 0.02 0.02 0.02 0.02 0.02 0.02 0.02 0.02 0.01 0.01
0.26 0.19 0.14 0.12 0.10 0.08 0.05 0.04 0.06 0.04 0.01 0.00 0.00 0.00 0.00 0.00 0.00 0.00 0.00 0.00 0.00 0.00 0.00 0.00 0.00 0.00 0.00 0.00 0.00 0.00 0.00 0.00 0.00 0.00 0.00 0.00 0.00 0.00 0.00 0.00 0.00 0.00 0.00 0.00 0.00 0.00 0.00 0.00 0.00 0.00 0.00 0.00 0.00 0.00 0.01 0.01 0.01 0.01 0.02 0.02 0.02 0.02 0.02 0.03 0.03 0.02 0.02 0.02 0.01
0.28 0.21 0.13 0.07 0.09 0.09 0.07 0.06 0.05 0.04 0.01 0.00 0.00 0.00 0.00 0.00 0.00 0.00 0.00 0.00 0.00 0.00 0.00 0.00 0.00 0.00 0.00 0.00 0.00 0.00 0.00 0.00 0.00 0.00 0.00 0.00 0.00 0.00 0.00 0.00 0.00 0.00 0.00 0.00 0.00 0.00 0.00 0.00 0.00 0.00 0.00 0.00 0.00 0.01 0.01 0.01 0.01 0.01 0.02 0.02 0.02 0.02 0.02 0.02 0.03 0.02 0.02 0.02 0.02
0.19 0.19 0.15 0.08 0.08 0.08 0.08 0.05 0.03 0.03 0.02 0.00 0.00 0.00 0.00 0.00 0.00 0.00 0.00 0.00 0.00 0.00 0.00 0.00 0.00 0.00 0.00 0.00 0.00 0.00 0.00 0.00 0.00 0.00 0.00 0.00 0.00 0.00 0.00 0.00 0.00 0.00 0.00 0.00 0.00 0.00 0.00 0.00 0.00 0.00 0.00 0.01 0.01 0.01 0.01 0.01 0.01 0.01 0.02 0.02 0.02 0.02 0.02 0.02 0.02 0.02 0.02 0.02 0.02
0.13 0.15 0.15 0.14 0.08 0.05 0.04 0.05 0.02 0.01 0.03 0.04 0.01 0.00 0.00 0.00 0.00 0.00 0.00 0.00 0.00 0.00 0.00 0.00 0.00 0.00 0.00 0.00 0.00 0.00 0.00 0.00 0.00 0.00 0.00 0.00 0.00 0.00 0.00 0.00 0.00 0.00 0.00 0.00 0.00 0.00 0.00 0.00 0.00 0.00 0.00 0.01 0.01 0.01 0.01 0.02 0.02 0.02 0.02 0.02 0.02 0.01 0.01 0.01 0.02 0.02 0.02 0.02 0.02
0.09 0.14 0.17 0.16 0.12 0.07 0.03 0.02 0.02 0.01 0.01 0.04 0.03 0.01 0.00 0.00 0.00 0.00 0.00 0.00 0.00 0.00 0.00 0.00 0.00 0.00 0.00 0.00 0.00 0.00 0.00 0.00 0.00 0.00 0.00 0.00 0.00 0.00 0.00 0.00 0.00 0.00 0.00 0.00 0.00 0.00 0.00 0.00 0.00 0.00 0.00 0.00 0.01 0.01 0.02 0.02 0.02 0.02 0.02 0.02 0.02 0.02 0.01 0.01 0.01 0.01 0.01 0.02 0.02
0.05 0.08 0.11 0.14 0.13 0.11 0.08 0.04 0.06 0.05 0.02 0.00 0.03 0.02 0.00 0.00 0.00 0.00 0.00 0.00 0.00 0.00 0.00 0.00 0.00 0.00 0.00 0.00 0.00 0.00 0.00 0.00 0.00 0.00 0.00 0.00 0.00 0.00 0.00 0.00 0.00 0.00 0.00 0.00 0.00 0.00 0.00 0.00 0.00 0.00 0.00 0.00 0.00 0.01 0.01 0.02 0.02 0.03 0.02 0.02 0.02 0.02 0.01 0.01 0.01 0.01 0.01 0.01 0.02
0.03 0.04 0.06 0.09 0.10 0.11 0.11 0.12 0.06 0.03 0.03 0.01 0.01 0.04 0.05 0.00 0.00 0.00 0.00 0.00 0.00 0.00 0.00 0.00 0.00 0.00 0.00 0.00 0.00 0.00 0.00 0.00 0.00 0.00 0.00 0.00 0.00 0.00 0.00 0.00 0.00 0.00 0.00 0.00 0.00 0.00 0.00 0.00 0.00 0.00 0.00 0.00 0.00 0.01 0.01 0.02 0.02 0.02 0.02 0.02 0.02 0.02 0.01 0.01 0.01 0.01 0.01 0.01 0.01
0.01 0.03 0.03 0.04 0.03 0.06 0.09 0.10 0.04 0.03 0.06 0.09 0.07 0.05 0.04 0.02 0.01 0.00 0.00 0.00 0.00 0.00 0.00 0.00 0.00 0.00 0.00 0.00 0.00 0.00 0.00 0.00 0.00 0.00 0.00 0.00 0.00 0.00 0.00 0.00 0.00 0.00 0.00 0.00 0.00 0.00 0.00 0.00 0.00 0.00 0.00 0.00 0.01 0.01 0.01 0.01 0.02 0.02 0.02 0.02 0.01 0.01 0.01 0.01 0.01 0.01 0.01 0.01 0.01
0.00 0.00 0.01 0.01 0.02 0.03 0.04 0.05 0.12 0.11 0.07 0.08 0.06 0.04 0.02 0.01 0.00 0.00 0.00 0.00 0.00 0.00 0.00 0.00 0.00 0.00 0.00 0.00 0.00 0.00 0.00 0.00 0.00 0.00 0.00 0.00 0.00 0.00 0.00 0.00 0.00 0.00 0.00 0.00 0.00 0.00 0.00 0.00 0.00 0.01 0.01 0.01 0.01 0.01 0.01 0.01 0.02 0.02 0.02 0.01 0.01 0.01 0.01 0.01 0.01 0.01 0.01 0.00 0.00
0.00 0.00 0.01 0.03 0.04 0.04 0.04 0.02 0.08 0.13 0.12 0.04 0.04 0.03 0.01 0.00 0.00 0.00 0.00 0.00 0.00 0.00 0.00 0.00 0.00 0.00 0.00 0.00 0.00 0.00 0.00 0.00 0.00 0.00 0.00 0.00 0.00 0.00 0.00 0.00 0.00 0.00 0.00 0.00 0.00 0.00 0.00 0.01 0.01 0.01 0.01 0.01 0.01 0.01 0.01 0.01 0.01 0.01 0.02 0.02 0.01 0.01 0.01 0.01 0.01 0.01 0.00 0.00 0.00
0.00 0.00 0.01 0.02 0.03 0.04 0.05 0.04 0.01 0.01 0.04 0.10 0.08 0.04 0.01 0.00 0.00 0.00 0.00 0.00 0.00 0.00 0.00 0.00 0.00 0.00 0.00 0.00 0.00 0.00 0.00 0.00 0.00 0.00 0.00 0.00 0.00 0.00 0.01 0.01 0.01 0.01 0.01 0.01 0.01 0.01 0.01 0.02 0.02 0.02 0.02 0.02 0.02 0.02 0.02 0.02 0.02 0.02 0.02 0.02 0.02 0.01 0.01 0.01 0.01 0.01 0.00 0.00 0.00
0.00 0.00 0.00 0.01 0.03 0.04 0.04 0.03 0.01 0.00 0.01 0.03 0.05 0.04 0.01 0.00 0.00 0.00 0.00 0.00 0.00 0.00 0.00 0.00 0.00 0.00 0.00 0.00 0.00 0.00 0.00 0.00 0.00 0.00 0.00 0.00 0.00 0.01 0.01 0.01 0.02 0.01 0.01 0.01 0.01 0.01 0.02 0.02 0.02 0.02 0.03 0.02 0.02 0.02 0.02 0.02 0.02 0.02 0.02 0.02 0.02 0.02 0.01 0.01 0.01 0.01 0.01 0.01 0.01
0.00 0.00 0.00 0.00 0.03 0.03 0.02 0.01 0.00 0.00 0.00 0.00 0.02 0.02 0.02 0.00 0.01 0.00 0.00 0.00 0.00 0.00 0.00 0.00 0.00 0.00 0.00 0.00 0.00 0.00 0.00 0.00 0.00 0.00 0.00 0.00 0.01 0.01 0.01 0.02 0.02 0.02 0.02 0.02 0.02 0.02 0.02 0.02 0.03 0.03 0.03 0.03 0.03 0.03 0.03 0.02 0.03 0.03 0.02 0.02 0.02 0.02 0.02 0.01 0.01 0.01 0.01 0.01 0.01
0.00 0.00 0.00 0.00 0.02 0.02 0.01 0.01 0.00 0.00 0.00 0.00 0.00 0.01 0.01 0.00 0.01 0.01 0.01 0.01 0.00 0.00 0.00 0.00 0.00 0.00 0.00 0.00 0.00 0.00 0.00 0.00 0.00 0.01 0.01 0.01 0.01 0.01 0.02 0.02 0.03 0.03 0.03 0.03 0.02 0.02 0.03 0.03 0.03 0.03 0.03 0.03 0.03 0.03 0.03 0.03 0.03 0.03 0.02 0.02 0.02 0.02 0.02 0.02 0.01 0.01 0.01 0.02 0.01
0.00 0.00 0.00 0.00 0.02 0.01 0.01 0.00 0.00 0.00 0.00 0.00 0.00 0.00 0.00 0.00 0.00 0.02 0.03 0.03 0.01 0.01 0.00 0.00 0.00 0.00 0.00 0.00 0.00 0.00 0.00 0.00 0.01 0.01 0.01 0.01 0.01 0.01 0.02 0.02 0.03 0.04 0.04 0.03 0.03 0.03 0.03 0.03 0.03 0.03 0.03 0.03 0.04 0.04 0.03 0.03 0.03 0.03 0.02 0.02 0.02 0.02 0.02 0.02 0.02 0.02 0.02 0.02 0.02
0.00 0.00 0.00 0.00 0.01 0.01 0.01 0.00 0.00 0.00 0.00 0.00 0.00 0.00 0.00 0.00 0.01 0.01 0.01 0.01 0.01 0.01 0.01 0.00 0.00 0.00 0.00 0.00 0.00 0.00 0.00 0.00 0.00 0.01 0.01 0.01 0.01 0.01 0.01 0.02 0.04 0.05 0.05 0.04 0.03 0.03 0.03 0.03 0.03 0.03 0.03 0.03 0.03 0.03 0.03 0.03 0.03 0.03 0.02 0.02 0.02 0.02 0.02 0.02 0.02 0.02 0.02 0.02 0.01
0.00 0.00 0.00 0.00 0.01 0.01 0.01 0.00 0.00 0.00 0.00 0.00 0.00 0.00 0.00 0.00 0.00 0.00 0.00 0.00 0.02 0.02 0.02 0.01 0.01 0.00 0.00 0.00 0.00 0.00 0.00 0.00 0.00 0.01 0.01 0.01 0.01 0.01 0.01 0.01 0.03 0.04 0.05 0.04 0.04 0.03 0.03 0.03 0.03 0.03 0.03 0.03 0.03 0.03 0.03 0.03 0.03 0.02 0.02 0.02 0.02 0.02 0.02 0.02 0.03 0.03 0.02 0.02 0.01
0.00 0.00 0.00 0.00 0.00 0.01 0.01 0.00 0.00 0.00 0.00 0.00 0.00 0.00 0.00 0.00 0.01 0.01 0.01 0.01 0.02 0.02 0.03 0.03 0.02 0.02 0.01 0.01 0.01 0.01 0.01 0.01 0.01 0.01 0.01 0.01 0.01 0.01 0.01 0.01 0.02 0.04 0.05 0.05 0.04 0.03 0.03 0.03 0.03 0.03 0.03 0.03 0.03 0.03 0.03 0.03 0.03 0.03 0.03 0.02 0.02 0.02 0.03 0.03 0.03 0.03 0.02 0.01 0.01
0.00 0.00 0.00 0.00 0.00 0.01 0.01 0.00 0.00 0.00 0.01 0.01 0.01 0.01 0.01 0.01 0.02 0.03 0.03 0.03 0.03 0.02 0.03 0.04 0.04 0.04 0.03 0.04 0.03 0.02 0.01 0.02 0.01 0.01 0.01 0.01 0.01 0.02 0.02 0.02 0.03 0.04 0.05 0.05 0.05 0.04 0.04 0.03 0.03 0.03 0.03 0.03 0.03 0.03 0.03 0.03 0.04 0.03 0.03 0.03 0.03 0.03 0.03 0.04 0.03 0.02 0.01 0.01 0.00
MSLP
1003.40 1003.52 1003.68 1003.72 1003.80 1003.96 1004.12 1004.24 1004.36 1004.44 1004.52 1004.68 1004.80 1005.00 1005.20 1005.40 1005.60 1005.80 1006.00 1006.24 1006.36 1006.52 1006.68 1006.80 1006.96 1007.12 1007.28 1007.52 1007.76 1007.96 1008.12 1008.28 1008.52 1008.72 1008.92 1009.08 1009.24 1009.36 1009.52 1009.68 1009.92 1010.20 1010.44 1010.60 1010.72 1010.84 1010.96 1011.04 1011.20 1011.40 1011.64 1011.80 1012.00 1012.20 1012.36 1012.44 1012.64 1012.80 1012.96 1013.04 1013.20 1013.32 1013.48 1013.64 1013.80 1013.96 1014.08 1014.16 1014.12
1003.48 1003.52 1003.56 1003.68 1003.80 1003.96 1004.08 1004.24 1004.36 1004.44 1004.60 1004.68 1004.84 1005.00 1005.16 1005.36 1005.52 1005.76 1005.96 1006.20 1006.28 1006.40 1006.60 1006.76 1006.96 1007.08 1007.24 1007.44 1007.68 1007.84 1008.04 1008.24 1008.44 1008.68 1008.88 1009.04 1009.20 1009.36 1009.48 1009.68 1009.84 1010.08 1010.32 1010.52 1010.68 1010.80 1010.88 1010.96 1011.12 1011.36 1011.56 1011.80 1011.96 1012.12 1012.24 1012.36 1012.48 1012.68 1012.84 1012.96 1013.08 1013.24 1013.40 1013.52 1013.80 1013.88 1013.92 1013.96 1014.08
1003.44 1003.44 1003.52 1003.68 1003.80 1003.96 1004.08 1004.24 1004.32 1004.44 1004.60 1004.76 1004.92 1005.04 1005.20 1005.36 1005.52 1005.76 1005.96 1006.16 1006.24 1006.40 1006.56 1006.72 1006.88 1007.04 1007.24 1007.40 1007.60 1007.80 1008.00 1008.20 1008.40 1008.60 1008.80 1009.00 1009.16 1009.32 1009.44 1009.60 1009.80 1009.96 1010.20 1010.36 1010.56 1010.68 1010.76 1010.92 1011.08 1011.24 1011.48 1011.68 1011.88 1012.04 1012.16 1012.28 1012.36 1012.52 1012.68 1012.84 1012.96 1013.12 1013.32 1013.48 1013.64 1013.72 1013.80 1013.92 1014.00
1003.44 1003.44 1003.52 1003.68 1003.76 1003.88 1004.00 1004.12 1004.32 1004.48 1004.64 1004.80 1004.96 1005.08 1005.24 1005.44 1005.64 1005.80 1005.96 1006.16 1006.32 1006.44 1006.56 1006.72 1006.84 1007.00 1007.16 1007.36 1007.52 1007.76 1007.96 1008.16 1008.36 1008.56 1008.80 1008.96 1009.16 1009.32 1009.44 1009.56 1009.72 1009.92 1010.08 1010.28 1010.44 1010.60 1010.72 1010.92 1011.04 1011.24 1011.40 1011.60 1011.80 1011.96 1012.04 1012.16 1012.28 1012.36 1012.52 1012.72 1012.88 1013.08 1013.24 1013.40 1013.52 1013.60 1013.72 1013.84 1013.96
1003.44 1003.44 1003.48 1003.60 1003.68 1003.80 1003.92 1004.08 1004.24 1004.48 1004.64 1004.80 1005.00 1005.20 1005.36 1005.52 1005.68 1005.88 1006.04 1006.24 1006.32 1006.40 1006.52 1006.68 1006.80 1006.96 1007.12 1007.32 1007.52 1007.72 1007.96 1008.16 1008.36 1008.52 1008.72 1008.96 1009.08 1009.24 1009.40 1009.56 1009.68 1009.84 1009.96 1010.16 1010.36 1010.52 1010.72 1010.96 1011.04 1011.16 1011.32 1011.52 1011.68 1011.80 1011.88 1012.00 1012.16 1012.28 1012.44 1012.68 1012.80 1012.96 1013.16 1013.32 1013.44 1013.52 1013.64 1013.80 1013.96
1003.40 1003.40 1003.48 1003.56 1003.64 1003.72 1003.88 1004.08 1004.24 1004.44 1004.68 1004.84 1005.04 1005.24 1005.40 1005.60 1005.72 1005.88 1006.04 1006.20 1006.28 1006.44 1006.56 1006.68 1006.80 1007.00 1007.16 1007.32 1007.52 1007.72 1007.92 1008.12 1008.32 1008.48 1008.68 1008.88 1009.08 1009.24 1009.36 1009.52 1009.64 1009.76 1009.92 1010.08 1010.24 1010.44 1010.68 1010.96 1011.04 1011.16 1011.32 1011.48 1011.56 1011.68 1011.80 1011.96 1012.08 1012.24 1012.44 1012.68 1012.80 1012.92 1013.08 1013.24 1013.36 1013.44 1013.56 1013.80 1013.96
1003.36 1003.40 1003.48 1003.52 1003.60 1003.68 1003.84 1004.08 1004.24 1004.48 1004.68 1004.88 1005.08 1005.24 1005.40 1005.56 1005.72 1005.88 1006.04 1006.16 1006.32 1006.48 1006.60 1006.72 1006.80 1006.96 1007.16 1007.36 1007.52 1007.68 1007.88 1008.08 1008.24 1008.40 1008.60 1008.80 1009.00 1009.16 1009.32 1009.44 1009.56 1009.68 1009.80 1009.96 1010.20 1010.44 1010.68 1010.80 1010.96 1011.16 1011.32 1011.40 1011.52 1011.68 1011.76 1011.84 1012.04 1012.20 1012.40 1012.64 1012.76 1012.92 1013.04 1013.16 1013.24 1013.40 1013.60 1013.80 1013.96
1003.28 1003.32 1003.40 1003.44 1003.52 1003.64 1003.80 1004.04 1004.24 1004.48 1004.68 1004.92 1005.08 1005.24 1005.40 1005.52 1005.68 1005.80 1005.96 1006.16 1006.32 1006.44 1006.56 1006.68 1006.80 1006.96 1007.08 1007.28 1007.44 1007.60 1007.80 1008.00 1008.20 1008.36 1008.52 1008.68 1008.88 1009.08 1009.24 1009.36 1009.52 1009.64 1009.76 1009.88 1010.08 1010.32 1010.52 1010.72 1010.92 1011.08 1011.24 1011.36 1011.52 1011.64 1011.72 1011.80 1012.00 1012.16 1012.36 1012.60 1012.76 1012.88 1012.96 1013.08 1013.24 1013.40 1013.52 1013.72 1013.96
1003.24 1003.28 1003.36 1003.40 1003.52 1003.64 1003.80 1004.04 1004.24 1004.44 1004.68 1004.84 1005.04 1005.16 1005.28 1005.44 1005.60 1005.80 1005.96 1006.08 1006.24 1006.36 1006.52 1006.60 1006.76 1006.88 1007.04 1007.20 1007.40 1007.52 1007.72 1007.92 1008.08 1008.28 1008.44 1008.60 1008.80 1009.00 1009.16 1009.28 1009.48 1009.60 1009.72 1009.80 1010.00 1010.24 1010.40 1010.60 1010.76 1010.96 1011.08 1011.24 1011.40 1011.56 1011.68 1011.80 1011.96 1012.16 1012.36 1012.56 1012.76 1012.88 1012.96 1013.08 1013.24 1013.36 1013.52 1013.72 1013.96
1003.24 1003.24 1003.32 1003.44 1003.52 1003.68 1003.84 1004.08 1004.24 1004.44 1004.60 1004.80 1004.96 1005.12 1005.24 1005.40 1005.52 1005.68 1005.84 1005.96 1006.16 1006.32 1006.48 1006.56 1006.72 1006.84 1007.00 1007.16 1007.28 1007.44 1007.60 1007.80 1007.96 1008.16 1008.36 1008.52 1008.68 1008.84 1009.04 1009.20 1009.36 1009.52 1009.68 1009.80 1009.96 1010.08 1010.28 1010.48 1010.68 1010.84 1010.96 1011.12 1011.32 1011.52 1011.68 1011.76 1011.92 1012.08 1012.32 1012.56 1012.76 1012.88 1013.00 1013.12 1013.24 1013.40 1013.56 1013.76 1013.96
1003.20 1003.24 1003.28 1003.40 1003.56 1003.72 1003.92 1004.12 1004.32 1004.48 1004.60 1004.80 1004.96 1005.08 1005.24 1005.36 1005.52 1005.64 1005.80 1005.92 1006.08 1006.24 1006.36 1006.52 1006.64 1006.76 1006.92 1007.08 1007.20 1007.32 1007.48 1007.68 1007.84 1008.04 1008.20 1008.36 1008.56 1008.72 1008.92 1009.08 1009.24 1009.40 1009.56 1009.72 1009.84 1010.04 1010.24 1010.40 1010.56 1010.76 1010.92 1011.08 1011.24 1011.44 1011.60 1011.76 1011.92 1012.08 1012.32 1012.56 1012.72 1012.88 1013.04 1013.20 1013.24 1013.40 1013.52 1013.76 1013.96
1003.24 1003.20 1003.24 1003.40 1003.56 1003.76 1003.96 1004.16 1004.36 1004.52 1004.64 1004.76 1004.92 1005.04 1005.16 1005.28 1005.40 1005.56 1005.68 1005.84 1006.04 1006.16 1006.24 1006.40 1006.52 1006.68 1006.80 1006.96 1007.08 1007.24 1007.40 1007.56 1007.76 1007.92 1008.08 1008.28 1008.48 1008.64 1008.80 1008.96 1009.16 1009.32 1009.48 1009.64 1009.76 1009.96 1010.12 1010.32 1010.52 1010.68 1010.92 1011.04 1011.24 1011.40 1011.56 1011.76 1011.96 1012.08 1012.32 1012.56 1012.76 1012.88 1013.00 1013.12 1013.24 1013.40 1013.52 1013.76 1013.96
1003.32 1003.24 1003.28 1003.44 1003.60 1003.80 1003.96 1004.16 1004.32 1004.44 1004.60 1004.72 1004.84 1004.96 1005.08 1005.24 1005.36 1005.48 1005.64 1005.80 1005.92 1006.04 1006.20 1006.32 1006.44 1006.56 1006.68 1006.80 1006.96 1007.12 1007.28 1007.44 1007.64 1007.80 1008.00 1008.20 1008.36 1008.52 1008.72 1008.92 1009.08 1009.24 1009.40 1009.56 1009.68 1009.80 1010.00 1010.20 1010.40 1010.60 1010.80 1011.00 1011.16 1011.36 1011.52 1011.68 1011.88 1012.08 1012.32 1012.52 1012.72 1012.84 1012.96 1013.08 1013.24 1013.40 1013.52 1013.76 1013.96
1003.48 1003.40 1003.40 1003.52 1003.68 1003.84 1004.04 1004.20 1004.28 1004.40 1004.52 1004.68 1004.76 1004.88 1005.00 1005.16 1005.28 1005.40 1005.52 1005.68 1005.80 1005.92 1006.08 1006.24 1006.36 1006.44 1006.56 1006.68 1006.84 1007.00 1007.16 1007.32 1007.52 1007.68 1007.92 1008.08 1008.24 1008.44 1008.64 1008.80 1008.96 1009.12 1009.28 1009.44 1009.56 1009.72 1009.88 1010.08 1010.32 1010.52 1010.72 1010.96 1011.12 1011.32 1011.48 1011.64 1011.84 1012.08 1012.24 1012.40 1012.60 1012.76 1012.88 1013.00 1013.16 1013.32 1013.52 1013.72 1013.96
1003.60 1003.56 1003.48 1003.52 1003.68 1003.84 1004.00 1004.16 1004.24 1004.36 1004.48 1004.60 1004.68 1004.80 1004.92 1005.08 1005.20 1005.32 1005.44 1005.52 1005.68 1005.80 1005.96 1006.12 1006.24 1006.36 1006.44 1006.56 1006.72 1006.92 1007.08 1007.24 1007.44 1007.64 1007.80 1007.96 1008.16 1008.32 1008.48 1008.68 1008.84 1009.00 1009.16 1009.32 1009.52 1009.64 1009.80 1010.00 1010.20 1010.40 1010.64 1010.80 1011.04 1011.28 1011.48 1011.64 1011.80 1011.96 1012.08 1012.28 1012.40 1012.56 1012.76 1012.92 1013.08 1013.24 1013.40 1013.64 1013.88
1003.72 1003.68 1003.60 1003.64 1003.68 1003.80 1003.96 1004.08 1004.16 1004.24 1004.36 1004.52 1004.56 1004.68 1004.80 1004.96 1005.08 1005.24 1005.36 1005.48 1005.60 1005.72 1005.88 1006.00 1006.12 1006.24 1006.36 1006.52 1006.68 1006.84 1007.04 1007.20 1007.36 1007.52 1007.68 1007.88 1008.04 1008.20 1008.36 1008.52 1008.68 1008.88 1009.08 1009.24 1009.40 1009.56 1009.76 1009.92 1010.08 1010.28 1010.52 1010.76 1010.96 1011.24 1011.40 1011.60 1011.76 1011.92 1012.04 1012.12 1012.28 1012.40 1012.60 1012.80 1012.96 1013.16 1013.32 1013.52 1013.76
1003.80 1003.76 1003.72 1003.76 1003.80 1003.84 1003.92 1003.96 1004.08 1004.16 1004.24 1004.36 1004.48 1004.56 1004.68 1004.84 1005.00 1005.12 1005.24 1005.40 1005.48 1005.64 1005.76 1005.88 1006.00 1006.12 1006.28 1006.44 1006.60 1006.76 1006.96 1007.08 1007.24 1007.40 1007.56 1007.72 1007.92 1008.08 1008.24 1008.36 1008.52 1008.72 1008.96 1009.08 1009.32 1009.52 1009.68 1009.84 1010.04 1010.24 1010.48 1010.68 1010.92 1011.12 1011.32 1011.52 1011.68 1011.88 1012.00 1012.08 1012.24 1012.36 1012.52 1012.68 1012.88 1013.08 1013.24 1013.44 1013.68
1003.96 1003.92 1003.88 1003.92 1003.92 1003.88 1003.84 1003.88 1003.96 1004.04 1004.12 1004.24 1004.32 1004.44 1004.52 1004.68 1004.84 1005.00 1005.12 1005.24 1005.36 1005.52 1005.68 1005.80 1005.92 1006.04 1006.16 1006.28 1006.48 1006.64 1006.80 1006.96 1007.12 1007.28 1007.44 1007.60 1007.80 1007.96 1008.08 1008.24 1008.40 1008.60 1008.80 1008.96 1009.16 1009.40 1009.60 1009.80 1010.04 1010.24 1010.48 1010.68 1010.88 1011.08 1011.24 1011.40 1011.60 1011.76 1011.92 1012.08 1012.20 1012.36 1012.52 1012.68 1012.88 1013.08 1013.24 1013.44 1013.64
1004.16 1004.16 1004.12 1004.08 1004.04 1003.96 1003.84 1003.80 1003.80 1003.92 1004.00 1004.08 1004.20 1004.32 1004.40 1004.56 1004.72 1004.88 1005.08 1005.20 1005.24 1005.40 1005.52 1005.68 1005.80 1005.96 1006.04 1006.16 1006.32 1006.48 1006.64 1006.80 1006.96 1007.12 1007.32 1007.52 1007.68 1007.84 1008.00 1008.16 1008.36 1008.48 1008.64 1008.80 1009.08 1009.28 1009.52 1009.72 1009.96 1010.24 1010.48 1010.68 1010.88 1011.08 1011.24 1011.40 1011.56 1011.72 1011.88 1012.04 1012.24 1012.40 1012.56 1012.76 1012.96 1013.08 1013.28 1013.48 1013.68
1004.24 1004.24 1004.24 1004.16 1004.12 1004.08 1003.96 1003.80 1003.80 1003.84 1003.96 1004.04 1004.12 1004.24 1004.36 1004.48 1004.60 1004.76 1004.96 1005.08 1005.16 1005.24 1005.40 1005.56 1005.72 1005.84 1005.96 1006.08 1006.24 1006.36 1006.52 1006.68 1006.88 1007.08 1007.24 1007.40 1007.60 1007.76 1007.96 1008.08 1008.24 1008.44 1008.60 1008.76 1009.00 1009.24 1009.48 1009.68 1009.92 1010.16 1010.44 1010.68 1010.88 1011.08 1011.24 1011.44 1011.60 1011.76 1011.96 1012.08 1012.28 1012.48 1012.64 1012.80 1013.00 1013.16 1013.36 1013.52 1013.76
1004.36 1004.28 1004.24 1004.24 1004.20 1004.20 1004.12 1003.96 1003.88 1003.92 1003.96 1004.04 1004.08 1004.20 1004.32 1004.40 1004.52 1004.68 1004.80 1004.92 1005.08 1005.20 1005.36 1005.48 1005.64 1005.76 1005.88 1006.00 1006.16 1006.32 1006.44 1006.60 1006.80 1006.96 1007.16 1007.32 1007.48 1007.64 1007.80 1008.00 1008.20 1008.40 1008.60 1008.76 1008.92 1009.16 1009.40 1009.64 1009.88 1010.12 1010.40 1010.68 1010.88 1011.08 1011.28 1011.48 1011.68 1011.84 1012.04 1012.24 1012.40 1012.60 1012.76 1012.92 1013.08 1013.24 1013.44 1013.64 1013.80
1004.44 1004.40 1004.36 1004.24 1004.20 1004.16 1004.16 1004.20 1004.12 1004.08 1004.08 1004.12 1004.20 1004.24 1004.32 1004.36 1004.52 1004.60 1004.68 1004.84 1005.00 1005.12 1005.24 1005.40 1005.52 1005.64 1005.76 1005.92 1006.08 1006.24 1006.36 1006.52 1006.72 1006.92 1007.08 1007.24 1007.40 1007.56 1007.72 1007.88 1008.12 1008.36 1008.52 1008.68 1008.88 1009.12 1009.36 1009.60 1009.84 1010.08 1010.36 1010.68 1010.88 1011.08 1011.28 1011.52 1011.72 1011.96 1012.16 1012.36 1012.52 1012.68 1012.88 1013.08 1013.24 1013.40 1013.60 1013.80 1013.96
1004.56 1004.40 1004.28 1004.20 1004.12 1004.12 1004.20 1004.24 1004.28 1004.24 1004.20 1004.24 1004.28 1004.36 1004.36 1004.40 1004.48 1004.56 1004.68 1004.84 1004.96 1005.08 1005.20 1005.28 1005.40 1005.52 1005.68 1005.80 1005.96 1006.16 1006.36 1006.52 1006.68 1006.84 1007.00 1007.16 1007.32 1007.52 1007.64 1007.80 1008.04 1008.24 1008.48 1008.68 1008.84 1009.08 1009.36 1009.64 1009.88 1010.08 1010.36 1010.64 1010.92 1011.12 1011.32 1011.52 1011.76 1011.96 1012.24 1012.44 1012.68 1012.84 1013.04 1013.24 1013.40 1013.60 1013.76 1013.96 1014.08
1004.80 1004.48 1004.28 1004.20 1004.12 1004.16 1004.20 1004.24 1004.28 1004.36 1004.36 1004.28 1004.32 1004.36 1004.40 1004.44 1004.52 1004.60 1004.68 1004.80 1004.92 1005.00 1005.12 1005.24 1005.36 1005.48 1005.60 1005.76 1005.96 1006.12 1006.32 1006.52 1006.68 1006.84 1006.96 1007.12 1007.28 1007.48 1007.64 1007.80 1007.96 1008.16 1008.36 1008.52 1008.76 1008.96 1009.24 1009.52 1009.84 1010.12 1010.36 1010.64 1010.92 1011.16 1011.40 1011.56 1011.80 1012.00 1012.24 1012.48 1012.72 1012.96 1013.20 1013.40 1013.60 1013.80 1013.96 1014.12 1014.32
1005.04 1004.68 1004.40 1004.24 1004.20 1004.20 1004.20 1004.24 1004.24 1004.32 1004.36 1004.32 1004.28 1004.36 1004.48 1004.48 1004.52 1004.60 1004.72 1004.80 1004.88 1004.96 1005.08 1005.20 1005.28 1005.44 1005.60 1005.80 1005.96 1006.08 1006.28 1006.44 1006.60 1006.80 1006.96 1007.12 1007.28 1007.44 1007.60 1007.76 1007.92 1008.08 1008.28 1008.48 1008.68 1008.84 1009.08 1009.40 1009.68 1010.04 1010.36 1010.68 1010.96 1011.24 1011.44 1011.64 1011.84 1012.04 1012.24 1012.48 1012.68 1013.00 1013.32 1013.56 1013.80 1013.96 1014.16 1014.32 1014.48
1005.20 1004.88 1004.60 1004.36 1004.28 1004.24 1004.24 1004.24 1004.24 1004.24 1004.28 1004.28 1004.24 1004.36 1004.44 1004.52 1004.52 1004.60 1004.68 1004.80 1004.88 1004.96 1005.04 1005.16 1005.28 1005.44 1005.60 1005.76 1005.92 1006.08 1006.24 1006.40 1006.52 1006.72 1006.92 1007.08 1007.24 1007.40 1007.52 1007.68 1007.88 1008.08 1008.24 1008.44 1008.64 1008.80 1009.04 1009.32 1009.56 1009.88 1010.24 1010.64 1010.96 1011.24 1011.52 1011.80 1011.96 1012.08 1012.24 1012.48 1012.68 1012.96 1013.28 1013.64 1013.92 1014.08 1014.28 1014.44 1014.60
1005.28 1005.08 1004.80 1004.52 1004.40 1004.36 1004.32 1004.28 1004.28 1004.24 1004.24 1004.24 1004.24 1004.28 1004.36 1004.48 1004.52 1004.56 1004.68 1004.80 1004.84 1004.92 1005.04 1005.16 1005.24 1005.40 1005.56 1005.76 1005.96 1006.08 1006.24 1006.36 1006.52 1006.68 1006.80 1007.00 1007.20 1007.36 1007.52 1007.68 1007.84 1008.04 1008.24 1008.40 1008.60 1008.80 1009.00 1009.32 1009.56 1009.80 1010.16 1010.56 1010.88 1011.20 1011.52 1011.80 1012.00 1012.20 1012.36 1012.56 1012.76 1012.96 1013.24 1013.56 1013.84 1014.08 1014.36 1014.52 1014.68
1005.36 1005.20 1004.96 1004.68 1004.52 1004.36 1004.32 1004.36 1004.36 1004.28 1004.24 1004.24 1004.24 1004.28 1004.36 1004.44 1004.52 1004.56 1004.64 1004.72 1004.80 1004.96 1005.08 1005.20 1005.24 1005.40 1005.56 1005.76 1005.88 1006.04 1006.16 1006.32 1006.48 1006.64 1006.80 1006.96 1007.12 1007.32 1007.48 1007.68 1007.84 1008.04 1008.20 1008.36 1008.56 1008.80 1009.04 1009.32 1009.56 1009.80 1010.12 1010.48 1010.80 1011.16 1011.48 1011.76 1012.00 1012.24 1012.44 1012.64 1012.84 1013.08 1013.28 1013.52 1013.76 1014.00 1014.24 1014.52 1014.68
1005.28 1005.20 1005.04 1004.80 1004.56 1004.36 1004.32 1004.36 1004.36 1004.32 1004.24 1004.24 1004.28 1004.40 1004.48 1004.48 1004.52 1004.56 1004.60 1004.68 1004.80 1004.92 1005.04 1005.16 1005.24 1005.40 1005.56 1005.76 1005.84 1005.96 1006.08 1006.28 1006.40 1006.56 1006.80 1006.96 1007.12 1007.28 1007.44 1007.68 1007.84 1008.04 1008.20 1008.36 1008.56 1008.80 1009.04 1009.32 1009.60 1009.84 1010.08 1010.36 1010.68 1011.08 1011.40 1011.68 1011.96 1012.20 1012.40 1012.68 1012.84 1013.08 1013.32 1013.52 1013.68 1013.96 1014.16 1014.40 1014.60
1005.24 1005.08 1004.96 1004.76 1004.56 1004.44 1004.36 1004.36 1004.32 1004.28 1004.24 1004.24 1004.32 1004.44 1004.52 1004.52 1004.48 1004.48 1004.52 1004.64 1004.76 1004.80 1004.92 1005.00 1005.20 1005.40 1005.52 1005.64 1005.80 1005.96 1006.12 1006.28 1006.36 1006.52 1006.76 1006.96 1007.16 1007.36 1007.52 1007.72 1007.88 1008.08 1008.24 1008.40 1008.56 1008.80 1009.08 1009.40 1009.60 1009.84 1010.08 1010.36 1010.68 1011.00 1011.36 1011.64 1011.88 1012.12 1012.36 1012.64 1012.80 1013.08 1013.28 1013.44 1013.64 1013.84 1014.08 1014.28 1014.52
1005.20 1005.04 1004.84 1004.68 1004.56 1004.44 1004.36 1004.32 1004.32 1004.32 1004.32 1004.32 1004.32 1004.36 1004.44 1004.48 1004.40 1004.36 1004.44 1004.52 1004.64 1004.72 1004.80 1004.96 1005.08 1005.32 1005.48 1005.60 1005.76 1005.92 1006.08 1006.20 1006.36 1006.52 1006.72 1006.92 1007.08 1007.32 1007.52 1007.72 1007.92 1008.08 1008.24 1008.40 1008.56 1008.80 1009.08 1009.40 1009.64 1009.88 1010.08 1010.36 1010.56 1010.92 1011.24 1011.52 1011.80 1012.04 1012.28 1012.52 1012.76 1012.96 1013.16 1013.36 1013.52 1013.72 1013.96 1014.16 1014.44
1005.20 1005.00 1004.80 1004.68 1004.52 1004.36 1004.24 1004.20 1004.20 1004.24 1004.32 1004.36 1004.36 1004.36 1004.32 1004.28 1004.24 1004.24 1004.32 1004.36 1004.52 1004.68 1004.80 1004.96 1005.08 1005.24 1005.40 1005.56 1005.72 1005.84 1006.00 1006.20 1006.36 1006.52 1006.68 1006.84 1007.08 1007.36 1007.56 1007.76 1007.96 1008.12 1008.28 1008.44 1008.60 1008.84 1009.08 1009.40 1009.64 1009.88 1010.12 1010.36 1010.60 1010.88 1011.20 1011.52 1011.80 1012.04 1012.24 1012.52 1012.72 1012.96 1013.08 1013.32 1013.52 1013.72 1013.92 1014.08 1014.36
1005.20 1004.96 1004.80 1004.64 1004.48 1004.36 1004.24 1004.08 1004.04 1004.08 1004.16 1004.28 1004.36 1004.36 1004.32 1004.24 1004.20 1004.20 1004.20 1004.24 1004.36 1004.56 1004.76 1004.92 1005.04 1005.16 1005.32 1005.52 1005.68 1005.84 1006.00 1006.16 1006.32 1006.48 1006.68 1006.88 1007.08 1007.36 1007.60 1007.80 1008.00 1008.20 1008.36 1008.52 1008.68 1008.84 1009.08 1009.40 1009.68 1009.96 1010.20 1010.40 1010.68 1010.96 1011.24 1011.52 1011.84 1012.12 1012.36 1012.60 1012.80 1013.00 1013.16 1013.36 1013.56 1013.76 1013.96 1014.12 1014.36
1005.16 1005.00 1004.80 1004.60 1004.48 1004.32 1004.20 1004.08 1003.96 1003.96 1004.00 1004.16 1004.24 1004.32 1004.32 1004.24 1004.20 1004.16 1004.12 1004.16 1004.24 1004.44 1004.64 1004.80 1004.92 1005.00 1005.12 1005.32 1005.52 1005.72 1005.96 1006.12 1006.28 1006.48 1006.68 1006.92 1007.12 1007.40 1007.60 1007.80 1008.00 1008.24 1008.36 1008.52 1008.68 1008.92 1009.12 1009.40 1009.68 1009.96 1010.24 1010.52 1010.80 1011.08 1011.40 1011.64 1011.96 1012.24 1012.52 1012.76 1012.96 1013.20 1013.40 1013.52 1013.72 1013.88 1014.00 1014.24 1014.44
1005.16 1005.00 1004.80 1004.64 1004.48 1004.32 1004.16 1004.04 1003.96 1003.88 1003.92 1003.96 1004.08 1004.24 1004.28 1004.24 1004.16 1004.08 1004.08 1004.08 1004.16 1004.32 1004.52 1004.68 1004.80 1004.96 1005.08 1005.24 1005.40 1005.60 1005.84 1006.08 1006.36 1006.52 1006.72 1006.96 1007.16 1007.40 1007.60 1007.80 1008.04 1008.24 1008.44 1008.60 1008.76 1008.96 1009.16 1009.40 1009.68 1009.96 1010.28 1010.60 1010.96 1011.24 1011.52 1011.80 1012.08 1012.36 1012.60 1012.84 1013.12 1013.36 1013.56 1013.76 1013.96 1014.08 1014.24 1014.40 1014.68
1005.20 1005.00 1004.84 1004.68 1004.48 1004.32 1004.16 1004.04 1003.92 1003.84 1003.80 1003.80 1003.88 1004.04 1004.12 1004.12 1004.08 1004.00 1003.96 1004.08 1004.12 1004.24 1004.40 1004.60 1004.80 1005.00 1005.20 1005.32 1005.40 1005.56 1005.80 1006.04 1006.28 1006.52 1006.72 1006.96 1007.16 1007.40 1007.64 1007.84 1008.08 1008.32 1008.52 1008.64 1008.80 1009.00 1009.24 1009.48 1009.72 1010.00 1010.32 1010.68 1011.04 1011.40 1011.68 1011.96 1012.24 1012.52 1012.76 1012.96 1013.24 1013.52 1013.72 1013.96 1014.12 1014.32 1014.48 1014.68 1014.84
1005.28 1005.08 1004.84 1004.68 1004.52 1004.36 1004.16 1004.04 1003.88 1003.80 1003.68 1003.64 1003.68 1003.76 1003.88 1003.96 1003.96 1003.96 1003.96 1004.04 1004.12 1004.24 1004.36 1004.52 1004.76 1004.96 1005.12 1005.28 1005.40 1005.52 1005.72 1005.92 1006.16 1006.44 1006.68 1006.92 1007.12 1007.32 1007.52 1007.80 1008.08 1008.32 1008.52 1008.68 1008.80 1009.04 1009.24 1009.52 1009.76 1010.00 1010.28 1010.68 1011.04 1011.40 1011.76 1012.04 1012.36 1012.64 1012.96 1013.20 1013.44 1013.68 1013.92 1014.12 1014.36 1014.52 1014.68 1014.88 1015.04
1005.44 1005.16 1004.92 1004.68 1004.52 1004.36 1004.20 1004.04 1003.88 1003.72 1003.64 1003.52 1003.52 1003.52 1003.60 1003.72 1003.80 1003.84 1003.92 1004.00 1004.08 1004.20 1004.36 1004.52 1004.68 1004.84 1005.04 1005.24 1005.40 1005.52 1005.68 1005.88 1006.08 1006.28 1006.52 1006.80 1007.00 1007.20 1007.44 1007.80 1008.08 1008.32 1008.52 1008.68 1008.80 1009.04 1009.24 1009.48 1009.72 1009.96 1010.20 1010.56 1010.96 1011.40 1011.72 1012.08 1012.40 1012.72 1013.04 1013.36 1013.64 1013.88 1014.08 1014.32 1014.52 1014.72 1014.92 1015.04 1015.20
1005.56 1005.24 1004.96 1004.68 1004.52 1004.36 1004.20 1004.04 1003.88 1003.68 1003.56 1003.48 1003.40 1003.40 1003.48 1003.56 1003.64 1003.72 1003.80 1003.92 1004.00 1004.20 1004.40 1004.56 1004.68 1004.80 1004.96 1005.20 1005.40 1005.56 1005.76 1005.96 1006.08 1006.20 1006.40 1006.68 1006.84 1007.04 1007.32 1007.64 1007.96 1008.24 1008.48 1008.68 1008.80 1009.00 1009.20 1009.40 1009.68 1009.92 1010.16 1010.52 1010.88 1011.24 1011.64 1012.04 1012.40 1012.76 1013.08 1013.40 1013.72 1014.04 1014.28 1014.52 1014.72 1014.92 1015.08 1015.24 1015.32
1005.60 1005.32 1005.04 1004.76 1004.52 1004.28 1004.12 1003.96 1003.80 1003.64 1003.52 1003.44 1003.40 1003.40 1003.40 1003.48 1003.52 1003.64 1003.72 1003.84 1004.04 1004.28 1004.52 1004.72 1004.80 1004.96 1005.08 1005.24 1005.44 1005.68 1005.84 1006.04 1006.16 1006.28 1006.40 1006.56 1006.80 1007.00 1007.24 1007.48 1007.80 1008.16 1008.44 1008.68 1008.80 1008.96 1009.20 1009.40 1009.64 1009.88 1010.16 1010.52 1010.84 1011.20 1011.56 1011.96 1012.36 1012.76 1013.08 1013.40 1013.72 1014.08 1014.40 1014.68 1014.88 1015.04 1015.20 1015.36 1015.48
1005.60 1005.28 1005.00 1004.72 1004.48 1004.24 1004.08 1003.92 1003.72 1003.56 1003.44 1003.40 1003.28 1003.24 1003.32 1003.40 1003.48 1003.56 1003.68 1003.84 1004.04 1004.32 1004.56 1004.80 1004.96 1005.08 1005.16 1005.32 1005.48 1005.68 1005.96 1006.20 1006.36 1006.44 1006.56 1006.68 1006.88 1007.08 1007.28 1007.48 1007.76 1008.08 1008.40 1008.68 1008.84 1009.00 1009.20 1009.40 1009.60 1009.80 1010.08 1010.44 1010.80 1011.16 1011.52 1011.92 1012.36 1012.72 1013.08 1013.40 1013.68 1014.04 1014.36 1014.72 1014.96 1015.16 1015.32 1015.44 1015.56
Thickness
5640 5639 5639 5639 5640 5641 5641 5643 5644 5646 5648 5650 5651 5651 5652 5652 5653 5653 5653 5654 5655 5656 5657 5658 5658 5658 5658 5658 5657 5657 5657 5657 5656 5656 5656 5655 5655 5654 5655 5654 5653 5651 5649 5648 5648 5648 5648 5649 5649 5648 5647 5646 5646 5644 5644 5644 5643 5642 5642 5641 5640 5639 5638 5637 5635 5634 5633 5633 5633
5636 5637 5637 5638 5639 5639 5640 5641 5643 5645 5646 5648 5649 5649 5650 5650 5650 5651 5652 5653 5654 5655 5656 5657 5657 5657 5657 5657 5656 5656 5656 5655 5655 5655 5654 5654 5653 5653 5653 5652 5652 5650 5648 5647 5647 5647 5647 5647 5648 5646 5645 5644 5643 5643 5642 5643 5642 5641 5640 5640 5639 5638 5636 5635 5634 5633 5632 5631 5631
5634 5635 5636 5637 5637 5638 5639 5641 5641 5643 5643 5645 5645 5646 5647 5648 5648 5649 5650 5651 5652 5653 5654 5655 5655 5656 5656 5656 5655 5655 5655 5654 5654 5653 5653 5652 5652 5651 5651 5650 5650 5649 5648 5647 5646 5646 5646 5646 5646 5645 5644 5643 5642 5642 5641 5641 5641 5640 5639 5638 5637 5636 5635 5633 5632 5631 5630 5630 5629
5631 5632 5634 5634 5635 5636 5637 5639 5640 5640 5641 5642 5642 5643 5644 5645 5646 5647 5648 5649 5650 5651 5653 5654 5654 5654 5654 5654 5654 5654 5653 5652 5652 5652 5651 5651 5650 5650 5650 5649 5649 5648 5647 5647 5646 5645 5645 5645 5644 5644 5643 5641 5641 5640 5640 5640 5640 5640 5639 5637 5636 5635 5633 5632 5631 5630 5629 5628 5627
5627 5629 5632 5633 5635 5635 5637 5637 5637 5638 5638 5639 5640 5641 5642 5643 5644 5645 5646 5647 5648 5650 5651 5652 5653 5653 5653 5653 5652 5652 5652 5651 5651 5650 5650 5650 5649 5648 5648 5648 5648 5647 5647 5646 5645 5645 5644 5643 5643 5642 5641 5640 5640 5640 5640 5639 5639 5638 5637 5636 5634 5633 5632 5631 5630 5629 5628 5626 5625
5626 5628 5630 5633 5634 5635 5636 5636 5635 5637 5637 5638 5639 5639 5641 5642 5642 5643 5645 5646 5646 5648 5649 5650 5651 5651 5651 5651 5651 5651 5650 5650 5649 5649 5648 5648 5647 5647 5647 5646 5646 5646 5646 5645 5645 5644 5643 5642 5641 5641 5640 5639 5638 5638 5638 5638 5637 5636 5635 5634 5633 5632 5631 5630 5629 5627 5626 5624 5623
5626 5629 5630 5633 5634 5635 5635 5635 5635 5636 5637 5638 5638 5639 5640 5641 5641 5643 5643 5644 5645 5646 5647 5647 5649 5649 5649 5649 5649 5649 5649 5648 5648 5648 5647 5646 5646 5646 5646 5645 5645 5645 5645 5645 5644 5642 5641 5640 5640 5639 5638 5637 5637 5637 5637 5636 5636 5634 5633 5632 5631 5630 5629 5628 5627 5626 5624 5622 5621
5627 5629 5631 5633 5634 5635 5635 5636 5636 5637 5637 5637 5638 5638 5639 5640 5641 5641 5642 5643 5643 5644 5645 5646 5647 5647 5647 5647 5647 5647 5647 5647 5646 5647 5646 5646 5645 5645 5645 5644 5644 5644 5644 5643 5643 5641 5640 5640 5639 5638 5637 5636 5636 5635 5635 5635 5633 5633 5631 5630 5629 5628 5627 5626 5625 5624 5623 5621 5620
5627 5630 5631 5632 5633 5634 5634 5636 5636 5636 5636 5636 5637 5638 5639 5639 5640 5640 5641 5642 5642 5643 5643 5644 5644 5645 5645 5645 5646 5646 5646 5646 5646 5645 5645 5645 5644 5644 5644 5643 5643 5643 5643 5642 5642 5641 5640 5639 5638 5638 5637 5636 5635 5634 5633 5633 5632 5631 5630 5628 5626 5625 5625 5624 5623 5622 5621 5619 5618
5627 5629 5630 5631 5632 5632 5633 5634 5634 5635 5635 5635 5636 5637 5637 5638 5638 5639 5640 5640 5641 5641 5642 5642 5642 5644 5644 5644 5644 5646 5645 5645 5645 5644 5645 5644 5644 5644 5643 5642 5642 5642 5642 5641 5641 5640 5639 5639 5637 5637 5636 5635 5634 5633 5633 5632 5631 5629 5628 5626 5624 5623 5623 5622 5621 5620 5619 5617 5616
5626 5628 5629 5629 5630 5631 5632 5632 5632 5633 5633 5634 5634 5635 5636 5637 5637 5638 5639 5639 5639 5639 5640 5641 5641 5642 5642 5643 5643 5644 5644 5645 5645 5644 5644 5643 5643 5643 5642 5642 5642 5641 5641 5640 5640 5639 5639 5638 5637 5636 5635 5634 5633 5633 5631 5631 5629 5628 5626 5624 5623 5622 5621 5620 5620 5619 5617 5615 5613
5625 5626 5627 5628 5629 5629 5630 5630 5631 5632 5632 5633 5633 5634 5635 5635 5636 5637 5638 5638 5638 5638 5639 5639 5640 5640 5641 5642 5642 5643 5643 5644 5643 5643 5643 5642 5642 5642 5642 5641 5640 5640 5640 5639 5639 5638 5638 5637 5636 5635 5634 5633 5632 5631 5630 5629 5627 5626 5624 5622 5621 5620 5620 5618 5618 5617 5615 5613 5611
5623 5624 5626 5627 5628 5628 5629 5629 5629 5630 5631 5631 5632 5633 5634 5635 5635 5636 5637 5637 5637 5638 5638 5638 5639 5640 5640 5641 5641 5641 5642 5642 5642 5642 5642 5641 5641 5640 5640 5640 5640 5639 5638 5638 5638 5637 5637 5636 5635 5634 5633 5632 5631 5630 5629 5627 5626 5624 5622 5621 5620 5619 5618 5617 5616 5615 5613 5611 5609
5620 5623 5625 5625 5626 5627 5627 5628 5629 5629 5630 5630 5632 5632 5633 5634 5635 5635 5635 5637 5637 5637 5637 5638 5638 5639 5640 5640 5641 5640 5641 5641 5641 5641 5640 5640 5640 5640 5639 5639 5639 5638 5638 5637 5637 5637 5637 5635 5634 5633 5632 5631 5630 5628 5627 5625 5624 5622 5621 5620 5619 5619 5618 5617 5615 5613 5612 5609 5608
5619 5621 5623 5625 5625 5625 5625 5626 5627 5628 5629 5630 5631 5632 5633 5633 5633 5634 5635 5636 5636 5637 5637 5637 5638 5638 5639 5639 5639 5639 5639 5640 5640 5640 5639 5639 5639 5639 5638 5638 5637 5637 5637 5637 5636 5636 5635 5634 5633 5632 5631 5630 5628 5626 5625 5624 5623 5621 5621 5620 5619 5618 5617 5615 5613 5612 5610 5608 5606
5618 5620 5622 5623 5624 5624 5625 5625 5626 5627 5628 5630 5631 5631 5632 5632 5633 5634 5635 5635 5636 5636 5636 5636 5637 5638 5638 5638 5639 5639 5638 5638 5639 5639 5638 5638 5638 5638 5638 5637 5636 5636 5636 5636 5635 5635 5634 5633 5632 5631 5630 5628 5627 5625 5623 5622 5621 5621 5619 5619 5618 5617 5616 5614 5613 5611 5609 5607 5605
5617 5618 5620 5621 5622 5623 5624 5625 5626 5627 5628 5629 5630 5631 5632 5632 5633 5633 5634 5635 5635 5635 5636 5636 5636 5637 5637 5637 5638 5637 5637 5637 5637 5637 5637 5638 5637 5637 5637 5637 5636 5636 5636 5635 5635 5633 5632 5631 5631 5629 5628 5626 5625 5623 5622 5621 5620 5618 5618 5617 5616 5615 5614 5612 5611 5610 5607 5605 5603
5616 5617 5618 5620 5619 5621 5623 5625 5626 5627 5628 5629 5630 5631 5632 5632 5633 5633 5633 5634 5635 5634 5635 5635 5636 5636 5637 5636 5637 5636 5636 5637 5637 5637 5637 5637 5636 5636 5636 5636 5635 5635 5635 5634 5633 5632 5631 5629 5628 5627 5625 5625 5623 5622 5621 5619 5618 5617 5616 5615 5614 5613 5612 5611 5609 5607 5606 5604 5601
5615 5615 5616 5617 5617 5619 5622 5624 5625 5627 5628 5629 5630 5631 5631 5632 5632 5632 5632 5633 5633 5634 5634 5634 5635 5636 5636 5636 5636 5636 5636 5636 5636 5636 5635 5636 5635 5635 5635 5634 5634 5634 5634 5633 5632 5631 5629 5628 5626 5625 5623 5622 5621 5619 5618 5618 5616 5615 5614 5614 5612 5611 5610 5608 5607 5606 5603 5601 5598
5612 5613 5614 5615 5616 5618 5620 5622 5624 5626 5627 5628 5629 5629 5630 5631 5631 5631 5632 5632 5633 5633 5633 5634 5634 5634 5635 5635 5635 5635 5635 5635 5636 5635 5635 5634 5634 5634 5633 5633 5633 5632 5632 5631 5631 5629 5627 5627 5625 5623 5621 5620 5619 5617 5616 5615 5614 5613 5612 5611 5610 5608 5607 5605 5604 5602 5600 5598 5596
5609 5609 5610 5611 5613 5616 5618 5620 5622 5624 5625 5626 5627 5628 5629 5630 5630 5630 5631 5632 5632 5632 5633 5633 5633 5634 5634 5634 5634 5634 5634 5634 5634 5634 5634 5633 5633 5633 5632 5632 5631 5631 5630 5630 5629 5628 5626 5625 5623 5621 5620 5618 5617 5615 5614 5613 5612 5610 5609 5608 5607 5606 5604 5603 5601 5599 5597 5594 5592
5606 5607 5608 5610 5612 5614 5616 5617 5619 5620 5622 5624 5625 5626 5627 5628 5629 5630 5630 5630 5631 5631 5632 5632 5633 5633 5633 5633 5633 5633 5633 5633 5632 5633 5632 5632 5632 5632 5631 5631 5630 5629 5629 5628 5627 5626 5624 5623 5621 5620 5619 5616 5615 5614 5612 5611 5609 5608 5606 5605 5603 5602 5601 5599 5597 5596 5593 5591 5589
5604 5606 5608 5610 5612 5612 5614 5614 5615 5616 5619 5621 5622 5624 5625 5627 5628 5628 5629 5629 5630 5631 5631 5631 5632 5632 5632 5632 5632 5632 5631 5631 5631 5631 5631 5631 5630 5631 5630 5630 5629 5628 5627 5626 5626 5624 5623 5621 5619 5618 5616 5615 5613 5611 5610 5609 5607 5605 5603 5602 5600 5599 5597 5595 5594 5591 5589 5587 5585
5601 5604 5607 5609 5611 5612 5613 5614 5614 5615 5616 5619 5620 5621 5623 5624 5626 5627 5628 5628 5629 5629 5630 5630 5631 5631 5631 5631 5631 5630 5630 5630 5630 5630 5629 5629 5629 5629 5629 5629 5628 5627 5626 5625 5624 5623 5621 5619 5618 5616 5615 5612 5611 5609 5607 5606 5604 5602 5601 5599 5598 5595 5594 5591 5589 5588 5585 5583 5580
5597 5602 5606 5608 5610 5612 5613 5614 5614 5614 5616 5617 5619 5620 5621 5623 5624 5626 5626 5627 5628 5628 5629 5629 5629 5629 5629 5629 5629 5629 5629 5628 5629 5628 5628 5627 5627 5628 5627 5627 5626 5626 5625 5624 5623 5622 5620 5619 5617 5615 5612 5610 5609 5607 5605 5603 5602 5600 5599 5597 5595 5593 5590 5588 5586 5583 5581 5578 5576
5594 5599 5603 5606 5609 5610 5611 5613 5613 5614 5615 5616 5618 5619 5620 5621 5623 5624 5625 5625 5626 5626 5627 5627 5628 5627 5627 5627 5627 5627 5627 5627 5627 5627 5627 5626 5626 5625 5625 5625 5625 5624 5623 5622 5620 5620 5619 5618 5616 5614 5611 5609 5607 5604 5602 5600 5599 5597 5596 5595 5593 5590 5588 5585 5582 5580 5577 5575 5573
5591 5596 5600 5603 5606 5608 5609 5611 5612 5613 5614 5615 5616 5618 5619 5620 5621 5622 5623 5624 5624 5625 5625 5626 5626 5625 5626 5626 5626 5626 5626 5626 5626 5625 5625 5625 5625 5624 5624 5623 5623 5622 5621 5620 5619 5618 5617 5616 5614 5613 5610 5607 5605 5603 5600 5598 5596 5595 5593 5591 5590 5588 5586 5583 5580 5578 5575 5572 5570
5590 5592 5596 5600 5604 5606 5608 5609 5610 5611 5613 5614 5615 5616 5617 5619 5620 5621 5622 5623 5623 5623 5624 5624 5624 5624 5624 5624 5624 5624 5624 5625 5624 5624 5624 5623 5623 5623 5622 5621 5621 5620 5619 5618 5617 5616 5615 5614 5612 5610 5609 5606 5604 5601 5599 5596 5594 5592 5590 5588 5587 5585 5583 5581 5579 5576 5573 5571 5568
5589 5591 5594 5598 5601 5604 5606 5607 5608 5610 5611 5613 5613 5614 5615 5616 5618 5620 5621 5621 5622 5622 5622 5623 5623 5623 5622 5623 5622 5623 5623 5622 5623 5622 5622 5622 5621 5620 5620 5619 5619 5618 5617 5616 5615 5614 5613 5611 5610 5608 5607 5605 5602 5600 5597 5595 5592 5591 5588 5586 5584 5582 5580 5579 5577 5574 5572 5570 5567
5589 5591 5594 5596 5600 5602 5604 5606 5607 5609 5610 5611 5612 5612 5613 5615 5617 5619 5619 5620 5621 5621 5622 5622 5622 5621 5621 5621 5621 5621 5621 5620 5621 5620 5620 5619 5619 5618 5618 5617 5616 5615 5615 5614 5613 5612 5611 5609 5608 5606 5605 5603 5601 5598 5595 5593 5591 5589 5586 5584 5582 5580 5579 5577 5575 5573 5571 5568 5566
5587 5590 5593 5596 5598 5600 5603 5605 5606 5607 5609 5610 5610 5611 5612 5614 5616 5618 5619 5620 5620 5621 5621 5621 5621 5620 5620 5619 5619 5619 5618 5619 5618 5618 5618 5617 5617 5616 5616 5614 5614 5613 5612 5611 5611 5609 5608 5607 5605 5604 5603 5601 5599 5596 5594 5591 5589 5587 5585 5582 5580 5578 5577 5575 5573 5572 5570 5567 5564
5585 5588 5592 5594 5597 5599 5601 5604 5606 5606 5607 5608 5609 5610 5612 5614 5615 5617 5619 5619 5620 5620 5620 5620 5620 5620 5619 5618 5618 5617 5617 5616 5617 5616 5616 5615 5615 5614 5613 5612 5611 5611 5610 5610 5608 5607 5606 5604 5603 5601 5601 5599 5597 5595 5592 5589 5586 5584 5582 5580 5578 5576 5575 5573 5571 5570 5568 5566 5563
5584 5587 5590 5593 5595 5598 5601 5602 5605 5605 5607 5607 5607 5609 5610 5613 5615 5616 5618 5619 5619 5619 5619 5619 5619 5618 5618 5617 5617 5616 5616 5615 5615 5615 5614 5614 5612 5612 5610 5610 5608 5608 5607 5607 5606 5605 5603 5602 5600 5599 5597 5596 5594 5591 5589 5586 5584 5581 5579 5577 5576 5574 5572 5570 5569 5567 5566 5564 5561
5582 5585 5588 5591 5594 5597 5599 5601 5603 5605 5606 5606 5606 5608 5609 5610 5613 5615 5617 5618 5618 5618 5618 5618 5618 5618 5618 5617 5616 5616 5615 5614 5613 5613 5612 5612 5610 5609 5608 5608 5606 5606 5605 5604 5604 5603 5601 5600 5598 5596 5595 5593 5590 5588 5586 5583 5581 5579 5576 5574 5572 5570 5569 5567 5565 5564 5563 5561 5559
5579 5582 5586 5589 5592 5595 5598 5600 5602 5604 5605 5606 5606 5607 5608 5609 5611 5613 5615 5616 5617 5618 5617 5616 5617 5616 5616 5616 5616 5614 5613 5613 5612 5611 5610 5610 5609 5608 5606 5606 5604 5604 5603 5602 5601 5600 5598 5597 5595 5593 5591 5589 5586 5584 5582 5580 5577 5575 5573 5571 5569 5567 5565 5563 5562 5561 5559 5557 5555
5576 5579 5583 5586 5589 5593 5596 5598 5601 5602 5604 5605 5606 5606 5607 5608 5610 5613 5614 5615 5616 5615 5615 5615 5614 5614 5613 5613 5614 5613 5612 5612 5610 5609 5608 5608 5607 5605 5604 5604 5602 5601 5601 5599 5599 5597 5596 5594 5593 5591 5589 5587 5583 5581 5579 5577 5575 5572 5570 5568 5566 5564 5562 5561 5559 5557 5556 5554 5552
5573 5577 5581 5583 5587 5590 5593 5596 5598 5601 5603 5604 5605 5606 5607 5608 5610 5611 5612 5614 5614 5614 5613 5613 5613 5612 5611 5611 5611 5611 5611 5610 5609 5608 5606 5606 5605 5604 5603 5601 5600 5599 5598 5597 5596 5595 5593 5592 5591 5589 5586 5584 5581 5578 5576 5574 5572 5569 5567 5565 5563 5561 5559 5557 5555 5554 5552 5550 5549
5570 5573 5577 5581 5584 5588 5591 5594 5596 5599 5601 5603 5605 5606 5607 5608 5609 5610 5611 5611 5611 5612 5611 5611 5610 5610 5609 5609 5609 5609 5608 5608 5607 5607 5605 5604 5603 5602 5601 5600 5598 5597 5595 5595 5594 5593 5591 5590 5589 5587 5585 5583 5580 5577 5575 5572 5569 5566 5564 5562 5560 5558 5556 5554 5552 5550 5549 5548 5546
5566 5571 5574 5578 5582 5585 5588 5591 5594 5597 5600 5601 5603 5604 5605 5606 5607 5608 5609 5610 5610 5610 5608 5608 5607 5607 5607 5606 5606 5606 5605 5605 5605 5604 5604 5603 5602 5601 5600 5598 5596 5595 5594 5593 5592 5590 5590 5589 5586 5585 5584 5582 5579 5576 5573 5570 5567 5564 5562 5559 5556 5554 5552 5550 5549 5547 5545 5544 5543
5563 5567 5571 5575 5579 5582 5585 5589 5591 5595 5597 5599 5600 5602 5603 5604 5605 5606 5607 5608 5607 5607 5605 5604 5604 5604 5603 5604 5603 5603 5602 5602 5601 5601 5601 5601 5600 5599 5598 5597 5595 5593 5591 5590 5590 5588 5587 5586 5585 5583 5581 5580 5577 5574 5571 5568 5565 5562 5560 5557 5554 5552 5549 5547 5545 5544 5542 5540 5539
5560 5565 5569 5573 5577 5580 5583 5586 5589 5592 5595 5597 5598 5600 5602 5602 5603 5604 5605 5604 5605 5603 5602 5601 5600 5599 5600 5600 5600 5600 5599 5598 5598 5598 5598 5598 5597 5596 5596 5595 5593 5592 5590 5588 5587 5586 5585 5584 5583 5581 5580 5577 5575 5572 5570 5567 5563 5561 5557 5555 5552 5550 5547 5545 5542 5540 5539 5537 5535